Weather Service Report


309 
ASUS43 KFSD 271702
RWRSD 

WEATHER ROUNDUP FOR SOUTH DAKOTA
NATIONAL WEATHER SERVICE SIOUX FALLS SD
1200 PM CDT SAT AUG 27 2016

NOTE: "FAIR" INDICATES FEW OR NO CLOUDS BELOW 12,000 FEET WITH NO
SIGNIFICANT WEATHER AND/OR OBSTRUCTIONS TO VISIBILITY.


SDZ001>005-009-010-012>017-271800-
NORTHWEST AND NORTH CENTRAL SOUTH DAKOTA
  
CITY           SKY/WX    TMP DP  RH WIND       PRES   REMARKS
BUFFALO          N/A     70  54  56 VRB6      29.89F                  
FAITH            N/A     72  53  51 S7        29.95F                  
MOBRIDGE       SUNNY     72  57  59 VRB7      29.92F                  
$$
 
SDZ012>016-024>037-041>051-057-063-072>074-271800-
SOUTHWEST AND SOUTH CENTRAL SOUTH DAKOTA
  
CITY           SKY/WX    TMP DP  RH WIND       PRES   REMARKS
RAPID CTY ARPT SUNNY     70  55  59 S12       29.97F                  
PIERRE         SUNNY     72  55  55 VRB5      29.94F                  
CUSTER         SUNNY     67  45  45 W10G18    30.07F                  
ELLSWORTH AFB  SUNNY     70  56  59 S12       29.96F                  
PHILIP         SUNNY     72  56  57 VRB3      29.96F                  
PINE RIDGE     SUNNY     67  59  75 SW13      30.00F                  
WINNER         FAIR      78  55  44 S5        29.97F                  
$$
 
SDZ004>011-016>023-039-040-271800-
NORTHEAST SOUTH DAKOTA
  
CITY           SKY/WX    TMP DP  RH WIND       PRES   REMARKS
ABERDEEN       CLOUDY    68  60  75 S13       29.96F                  
WATERTOWN      CLOUDY    67  58  72 S9        29.99F                  
BROOKINGS      CLOUDY    64  59  83 SE3       30.01F                  
$$
 
SDZ017-020-022-023-036>040-048>070-271800-
SOUTHEAST SOUTH DAKOTA
  
CITY           SKY/WX    TMP DP  RH WIND       PRES   REMARKS
SIOUX FALLS    CLOUDY    67  62  84 SW3       30.01F                  
HURON          CLOUDY    68  60  75 S8        29.97F                  
CHAMBERLAIN    SUNNY     75  58  55 SW8       29.97F                  
MITCHELL       MOSUNNY   72  61  68 S7        29.98F                  
YANKTON        MOSUNNY   72  59  64 SW6       29.98F                  
$$
 
ABBREVIATIONS USED IN REMARKS
   TC - TEMPERATURE IN CELSIUS
  WCI - WIND CHILL INDEX
   HX - HEAT INDEX
  VSB - VISIBILITY

  


311 
ASUS43 KFSD 271702
RWRFSD

WEATHER ROUNDUP FOR SE SOUTH DAKOTA/SW MINNESOTA/NW IOWA
NATIONAL WEATHER SERVICE SIOUX FALLS SD
1200 PM CDT SAT AUG 27 2016

NOTE: "FAIR" INDICATES FEW OR NO CLOUDS BELOW 12,000 FEET WITH NO
SIGNIFICANT WEATHER AND OR OBSTRUCTIONS TO VISIBILITY.


SDZ038>040-050-052>070-271800-
SOUTHEAST SOUTH DAKOTA
  
CITY           SKY/WX    TMP DP  RH WIND       PRES   REMARKS
BROOKINGS      CLOUDY    64  59  83 SE3       30.01F                  
CHAMBERLAIN    SUNNY     75  58  55 SW8       29.97F                  
HURON          CLOUDY    68  60  75 S8        29.97F                  
MADISON        CLOUDY    63  63 100 SE5       30.01F                  
MITCHELL       MOSUNNY   72  61  68 S7        29.98F                  
SIOUX FALLS    CLOUDY    67  62  84 SW3       30.01F                  
WINNER         FAIR      78  55  44 S5        29.97F                  
YANKTON        MOSUNNY   72  59  64 SW6       29.98F                  
$$

MNZ071-072-080-081-089-090-097-098-271800-
SOUTHWEST MINNESOTA
  
CITY           SKY/WX    TMP DP  RH WIND       PRES   REMARKS
FAIRMONT       CLOUDY    63  62  97 SW7       30.02F                  
JACKSON          N/A     63  61  94 SE3       30.02F                  
LUVERNE        CLOUDY    63  59  88 SW3       30.02S                  
MARSHALL       CLOUDY    62  60  93 SE10      30.02F                  
MONTEVIDEO     CLOUDY    64  61  88 S3        30.03F                  
REDWOOD FALLS  CLOUDY    63  59  87 E8        30.01S                  
TRACY          CLOUDY    63  62  95 SE6       30.01F FOG              
WINDOM         CLOUDY    64  61  88 S5        30.02F FOG              
WORTHINGTON    CLOUDY    64  62  93 SW6       30.02F FOG              
$$

IAZ001>003-012>014-020>022-031-032-NEZ013-014-SDZ071-271800-
NORTHWEST IOWA
  
CITY           SKY/WX    TMP DP  RH WIND       PRES   REMARKS
CHEROKEE       CLOUDY    68  66  93 W3        30.02S                  
DENISON        CLOUDY    72  66  83 VRB5      30.01S                  
ESTHERVILLE    CLOUDY    66  65  96 W5        30.01F                  
LE MARS        CLOUDY    68  63  83 VRB3      30.03R                  
ORANGE CITY    CLOUDY    68  64  88 SW5       30.03R                  
SHELDON        CLOUDY    66  64  94 SW5       30.01S                  
SIOUX CITY     CLOUDY    72  64  76 S5        30.01F                  
SPENCER        CLOUDY    65  62  90 S6        30.03S                  
STORM LAKE     PTSUNNY   66  64  94 S6        30.04R                  
$$
 
ABBREVIATIONS USED IN REMARKS
   TC - TEMPERATURE IN CELSIUS
  WCI - WIND CHILL INDEX
   HX - HEAT INDEX
  VSB - VISIBILITY

  

Return to Home page


Western Regional Climate Center, wrcc@dri.edu